User: anonymous   Login
Location: Unspecified
(0.0000°N, 0.0000°E)
Time: 15:44:38
(UTC+00:00)
Language:

Spot 3 - Orbit

View from above orbital plane
View from above orbital plane
View from above satellite
View from above satellite

Ground track
Ground track

The orbit data is extracted from the following two-line orbital elements,

1 22823U 93061A   18168.88756109 -.00000013  00000-0  15755-4 0  9996
2 22823  98.9969 141.8162 0015953 298.7361  61.2211 14.19198300280392
Epoch (UTC): 17 June 2018 21:18:05
Eccentricity: 0.0015953
inclination: 98.9969°
perigee height: 816 km
apogee height: 839 km
right ascension of ascending node: 141.8162°
argument of perigee: 298.7361°
revolutions per day: 14.19198300
mean anomaly at epoch: 61.2211°
orbit number at epoch: 28039

The dashed part of the orbit path shows where the satellite is in the earth's shadow,  

DLR